Regional Weather Roundup
Issued by NWS

Home | Current Version | Previous Version | Graphics & Text | Print | Product List | Glossary On
Versions: 1 2 3 4 5 6 7 8 9 10 11 12 13 14 15 16 17 18 19 20 21 22 23 24 25 26 27
000
ASUS45 KBOI 080210
RWRID

IDAHO REGIONAL WEATHER ROUNDUP
NATIONAL WEATHER SERVICE BOISE ID
700 PM MST WED DEC 07 2016

NOTE: "FAIR" INDICATES FEW OR NO CLOUDS BELOW 12000 FEET
WITH NO SIGNIFICANT WEATHER AND/OR OBSTRUCTIONS TO VISIBILITY

IDZ012-014-080300-
SOUTHWEST IDAHO


CITY           SKY/WX    TMP DP  RH WIND       PRES   REMARKS
BOISE          CLEAR     21  14  74 SE7       30.36F WCI  12
CALDWELL       CLEAR     13   9  84 NE9       30.39F WCI   1
MOUNTAIN HOME  CLEAR     13  10  87 E8        30.35F WCI   2
$$

IDZ016-017-080300-
SOUTHCENTRAL IDAHO


CITY           SKY/WX    TMP DP  RH WIND       PRES   REMARKS
BURLEY         CLEAR      9   6  88 E3        30.32R
JEROME         CLEAR     14  10  84 E10       30.32S WCI   1
TWIN FALLS     PTCLDY    10   6  84 E7        30.31S WCI  -1
$$

IDZ019>023-080300-
SOUTHEAST IDAHO


CITY           SKY/WX    TMP DP  RH WIND       PRES   REMARKS
IDAHO FALLS    PTCLDY    13   6  74 E6        30.33R WCI   4
POCATELLO      CLEAR      2   0  91 S3        30.34R
REXBURG        PTCLDY     4   0  83 CALM      30.33R
$$

IDZ006-010-011-018-031-032-080300-
CENTRAL IDAHO MOUNTAINS


CITY           SKY/WX    TMP DP  RH WIND       PRES   REMARKS
MCCALL         CLEAR      5   1  83 NE5       30.20S WCI  -4
HAILEY         PTCLDY     5   1  85 NW6       30.28R WCI  -6
STANLEY          N/A     -8 -13  78 CALM      30.18R
SALMON         PTCLDY     7   1  78 SE3       30.32R
CHALLIS        CLEAR      9   3  77 SE3       30.25R
$$

IDZ002-004-006-007-026-080300-
NORTHERN IDAHO


CITY           SKY/WX    TMP DP  RH WIND       PRES   REMARKS
LEWISTON       CLEAR     20  14  77 S5        30.45R WCI  13
LOWELL           N/A     25  22  88 CALM      30.47R
COEUR D`ALENE  CLEAR     18  10  71 N12       30.44R WCI   5
MULLAN PASS    PTCLDY     2  -2  83 SE8       30.18R WCI -12
$$




USA.gov is the U.S. government's official web portal to all federal, state and local government web resources and services.